Home > Weather > Ganja > Past weeks

Flag for Azerbaijan Past Weather in Ganja, Azerbaijan — Yesterday and Last 2 Weeks

Now
82 °F

Passing clouds.


Feels Like: 84 °F
Forecast: 74 / 94 °F
Wind: 6 mph from North

Location: Gyanca Airport

Current Time: Jun 29, 2016 at 9:38:54 AM

Latest Report: Jun 29, 2016 at 9:00 AM


Visibility: N/A

Pressure: 29.74 "Hg

Humidity: 55%

Dew Point: 64 °F

Location of GanjaLocation

Past Weather in Ganja — Graph

°F

Ganja Temperature Yesterday

Maximum temperature yesterday: 91 °F (at 2:30 PM)
Minimum temperature yesterday: 68 °F (at 5:00 AM)
Average temperature yesterday: 82 °F

High & Low Weather Summary for the Past Weeks

 TemperatureHumidityPressure
High95 °F (Jun 21, 3:30 PM)88% (Jun 15, 4:30 AM)30.12 "Hg (Jun 15, 4:30 AM)
Low64 °F (Jun 15, 4:30 AM)17% (Jun 21, 4:32 PM)29.65 "Hg (Jun 28, 4:30 PM)
Average79 °F47%29.94 "Hg
* Reported Jun 14 8:00 AM — Jun 29 8:30 AM, Ganja, Weather by CustomWeather, © 2016

Note: Actual official high and low records may vary slightly from our data, if they occured in-between our weather recording intervals... More about our weather records

Advertising

Ganja Weather History for the Previous 24 Hours

Scroll right to see more
 ConditionsComfort  
Time TempWeatherWind HumidityBarometerVisibility
8:30 AM
Wed, Jun 29
81 °FPassing clouds.6 mph54%29.74 "HgN/A
8:00 AM79 °FPassing clouds.5 mph58%29.74 "HgN/A
7:30 AM77 °FPassing clouds.7 mph61%29.74 "HgN/A
7:00 AM77 °FScattered clouds.3 mph65%29.71 "HgN/A
6:00 AM73 °FPassing clouds.2 mph74%29.71 "HgN/A
5:30 AM73 °FPassing clouds.5 mphN/AN/AN/A
4:30 AM73 °FPassing clouds.5 mph78%29.68 "HgN/A
4:00 AM73 °FPassing clouds.5 mph78%29.68 "HgN/A
3:30 AM73 °FPassing clouds.5 mph78%29.71 "HgN/A
3:00 AM73 °FPassing clouds.No wind78%29.71 "HgN/A
2:30 AM73 °FThundershowers. Partly cloudy.2 mph83%29.71 "HgN/A
2:00 AM75 °FThundershowers. Partly cloudy.2 mph78%29.68 "HgN/A
1:30 AM77 °FThundershowers. Partly cloudy.5 mph74%29.71 "HgN/A
1:00 AM77 °FThundershowers. Partly cloudy.5 mph65%29.71 "HgN/A
12:30 AM77 °FThunderstorms. Partly cloudy.6 mph65%29.71 "HgN/A
12:00 AM81 °FThundershowers. Partly cloudy.9 mph48%29.68 "HgN/A
11:30 PM
Tue, Jun 28
82 °FThundershowers. Passing clouds.No wind42%29.71 "HgN/A
11:00 PM82 °FPassing clouds.No wind42%29.71 "HgN/A
10:30 PM82 °FPassing clouds.No wind45%29.68 "HgN/A
10:00 PM84 °FPassing clouds.No wind40%29.68 "HgN/A
9:30 PM86 °FPassing clouds.8 mph35%29.65 "HgN/A
9:00 PM86 °FScattered clouds.7 mph33%29.65 "HgN/A
8:30 PM86 °FPassing clouds.8 mph31%29.65 "HgN/A
8:00 PM86 °FPassing clouds.7 mph33%29.65 "HgN/A
7:30 PM88 °FPassing clouds.9 mph31%29.65 "HgN/A
7:00 PM90 °FPassing clouds.12 mph27%29.65 "HgN/A
6:30 PM91 °FPassing clouds.13 mph26%29.65 "HgN/A
6:00 PM91 °FPassing clouds.12 mph28%29.65 "HgN/A
5:30 PM91 °FPassing clouds.10 mph26%29.65 "HgN/A
5:00 PM91 °FPassing clouds.9 mph26%29.65 "HgN/A
4:30 PM91 °FHot.10 mph26%29.65 "HgN/A
4:00 PM91 °FPassing clouds.9 mph24%29.68 "HgN/A
3:30 PM91 °FPassing clouds.9 mph26%29.68 "HgN/A
3:00 PM91 °FPassing clouds.8 mph26%29.68 "HgN/A
2:30 PM91 °FPassing clouds.8 mph28%29.71 "HgN/A
2:00 PM90 °FPassing clouds.7 mph29%29.71 "HgN/A
1:30 PM88 °FPassing clouds.7 mph33%29.71 "HgN/A
1:00 PM86 °FPassing clouds.7 mph35%29.74 "HgN/A
12:30 PM86 °FPassing clouds.6 mph35%29.74 "HgN/A
12:00 PM84 °FPassing clouds.5 mph37%29.77 "HgN/A
11:30 AM84 °FPassing clouds.3 mph37%29.77 "HgN/A
11:00 AM82 °FPassing clouds.2 mph42%29.77 "HgN/A
10:30 AM81 °FPassing clouds.2 mph48%29.77 "HgN/A
10:00 AM79 °FPassing clouds.2 mph48%29.80 "HgN/A
Weather by CustomWeather, © 2016

See weather overviewHow to use our weather pages